Location: Newark
(35.6799°N, 139.7636°E)
Time: 05:54:18
(UTC+00:00)

Explorer 7 - Pass Details

Date: 13 December 2019
Orbit: 485 x 679 km, 50.3° (Epoch: 28 January)

Event Time Altitude Azimuth Distance (km) Brightness Sun altitude
Rises 08:46:02 0° 306° (NW) 3,028 11.1 -15.4°
Reaches altitude 10° 08:49:30 10° 331° (NNW) 2,118 9.9 -16.1°
Maximum altitude 08:52:09 14° 4° (N) 1,838 9.3 -16.6°
Enters shadow 08:53:19 13° 19° (NNE) 1,891 9.2 -16.8°
Drops below altitude 10° 08:54:47 10° 37° (NE) 2,106 - -17.1°
Sets 08:58:13 0° 62° (ENE) 2,997 - -17.8°
